EW3867 Weather Reports


Display with metric or nautical units.
time (UTC)temp
F
wind
direction
speed
MPH
gust
MPH
rain 1hr
in
rain 24hr
in
rain mn
in
humidity
%
barometer
mb
20260906215358 84 269 0.0 11.0 0.00 0.00 0.00 25 1005.1
20260906214359 83 254 0.0 10.0 0.00 0.00 0.00 26 1005.4
20260906213402 83 246 0.0 0.0 0.00 0.00 0.00 26 1005.5
20260906211213 84 227 0.0 0.0 0.00 0.00 0.00 25 1005.6
20260906210226 83 213 3.0 6.0 0.00 0.00 0.00 26 1005.5
20260906205222 83 209 0.0 7.0 0.00 0.00 0.00 26 1005.7
20260906204239 84 227 0.0 4.0 0.00 0.00 0.00 26 1005.8
20260906203206 84 216 4.0 13.0 0.00 0.00 0.00 25 1005.8
20260906202204 84 140 0.0 4.0 0.00 0.00 0.00 26 1006.0
20260906201206 83 126 4.0 11.0 0.00 0.00 0.00 25 1006.1
20260906200219 83 142 0.0 0.0 0.00 0.00 0.00 24 1006.2
20260906195214 83 143 3.0 11.0 0.00 0.00 0.00 26 1006.4
20260906194210 82 184 0.0 0.0 0.00 0.00 0.00 25 1006.5
20260906193142 82 169 10.0 13.0 0.00 0.00 0.00 25 1006.6
20260906192125 81 115 6.0 13.0 0.00 0.00 0.00 26 1006.7
20260906191120 83 116 3.0 12.0 0.00 0.00 0.00 25 1006.8
20260906190058 83 203 0.0 5.0 0.00 0.00 0.00 24 1007.0
20260906185100 83 207 0.0 0.0 0.00 0.00 0.00 24 1007.1
20260906184107 83 194 0.0 8.0 0.00 0.00 0.00 24 1007.2
20260906181941 83 192 0.0 0.0 0.00 0.00 0.00 23 1007.5
20260906180908 83 182 0.0 0.0 0.00 0.00 0.00 22 1007.6
20260906175912 83 194 0.0 0.0 0.00 0.00 0.00 22 1007.9
20260906174904 83 181 0.0 1.0 0.00 0.00 0.00 22 1008.0
20260906173833 83 178 0.0 0.0 0.00 0.00 0.00 22 1008.2
20260906172808 83 178 1.0 14.0 0.00 0.00 0.00 22 1008.5
20260906171746 82 153 1.0 0.0 0.00 0.00 0.00 22 1008.5
20260906170758 82 140 0.0 0.0 0.00 0.00 0.00 22 1008.6
20260906165750 81 140 0.0 8.0 0.00 0.00 0.00 23 1008.7
20260906164728 81 140 0.0 8.0 0.00 0.00 0.00 22 1008.7
20260906163733 80 258 0.0 3.0 0.00 0.00 0.00 22 1009.0
20260906161527 79 347 0.0 7.0 0.00 0.00 0.00 21 1009.1
20260906154129 77 348 0.0 0.0 0.00 0.00 0.00 25 1009.3
20260906153121 76 348 0.0 2.0 0.00 0.00 0.00 25 1009.2
20260906152140 75 348 0.0 1.0 0.00 0.00 0.00 26 1009.3
20260906151148 74 348 0.0 0.0 0.00 0.00 0.00 27 1009.4
20260906150143 72 348 0.0 0.0 0.00 0.00 0.00 30 1009.4
20260906145120 71 348 0.0 1.0 0.00 0.00 0.00 28 1009.4
20260906144121 70 348 0.0 0.0 0.00 0.00 0.00 31 1009.3
20260906143114 68 348 0.0 0.0 0.00 0.00 0.00 33 1009.2
20260906142052 67 348 0.0 0.0 0.00 0.00 0.00 35 1009.4
20260906141043 66 348 0.0 0.0 0.00 0.00 0.00 37 1009.5
20260906134908 63 348 0.0 0.0 0.00 0.00 0.00 39 1009.5
20260906133846 60 348 0.0 0.0 0.00 0.00 0.00 42 1009.5
20260906132848 58 348 0.0 0.0 0.00 0.00 0.00 44 1009.5
20260906131849 56 348 0.0 0.0 0.00 0.00 0.00 45 1009.3
20260906125717 55 348 0.0 0.0 0.00 0.00 0.00 46 1009.1
20260906124727 54 348 0.0 0.0 0.00 0.00 0.00 47 1008.9
20260906123707 55 348 0.0 0.0 0.00 0.00 0.00 46 1008.6
20260906122713 55 348 0.0 0.0 0.00 0.00 0.00 45 1008.8
20260906121731 56 348 0.0 0.0 0.00 0.00 0.00 44 1008.8
20260906120731 55 348 0.0 0.0 0.00 0.00 0.00 44 1008.6
20260906114608 55 348 0.0 0.0 0.00 0.00 0.00 44 1008.6
20260906113606 55 348 0.0 0.0 0.00 0.00 0.00 44 1008.5
20260906112627 55 348 0.0 0.0 0.00 0.00 0.00 45 1008.5
20260906111607 55 348 0.0 0.0 0.00 0.00 0.00 44 1008.6
20260906110541 55 348 0.0 1.0 0.00 0.00 0.00 45 1008.6
20260906105552 55 348 0.0 0.0 0.00 0.00 0.00 44 1008.5
20260906104521 55 348 0.0 0.0 0.00 0.00 0.00 45 1008.5
20260906101317 55 348 0.0 0.0 0.00 0.00 0.00 44 1008.4
20260906095104 55 348 0.0 0.0 0.00 0.00 0.00 43 1008.3
20260906094127 55 348 0.0 0.0 0.00 0.00 0.00 43 1008.3
20260906093125 56 348 0.0 0.0 0.00 0.00 0.00 42 1008.3
20260906092130 56 348 0.0 0.0 0.00 0.00 0.00 42 1008.1
20260906091127 57 348 0.0 0.0 0.00 0.00 0.00 42 1008.2
20260906090133 57 348 1.0 7.0 0.00 0.00 0.00 41 1008.3
20260906085059 58 348 4.0 9.0 0.00 0.00 0.00 41 1008.3
20260906084035 56 346 0.0 9.0 0.00 0.00 0.00 44 1008.3
20260906083056 55 346 0.0 0.0 0.00 0.00 0.00 44 1008.4
20260906082111 56 346 0.0 0.0 0.00 0.00 0.00 43 1008.4
20260906081044 58 346 4.0 0.0 0.00 0.00 0.00 40 1008.4
20260906080057 59 345 6.0 9.0 0.00 0.00 0.00 39 1008.4
20260906075054 56 343 0.0 4.0 0.00 0.00 0.00 44 1008.4
20260906074038 56 343 0.0 0.0 0.00 0.00 0.00 43 1008.4
20260906073018 58 343 4.0 8.0 0.00 0.00 0.00 40 1008.3
20260906071956 58 341 3.0 5.0 0.00 0.00 0.00 40 1008.3
20260906071017 59 341 0.0 7.0 0.00 0.00 0.00 40 1008.3
20260906070011 58 341 0.0 0.0 0.00 0.00 0.00 41 1008.3
20260906065036 58 341 0.0 0.0 0.00 0.00 0.00 41 1008.3
20260906064039 59 341 0.0 0.0 0.00 0.00 0.00 41 1008.2
20260906063055 60 341 0.0 0.0 0.00 0.00 0.00 40 1008.3
20260906062022 61 341 0.0 0.0 0.00 0.00 0.00 39 1008.2
20260906055821 61 341 3.0 9.0 0.00 0.00 0.00 39 1008.3
20260906052624 62 341 1.0 7.0 0.00 0.00 0.00 39 1008.3
20260906051633 62 340 1.0 0.0 0.00 0.00 0.00 38 1008.3
20260906050623 63 340 4.0 8.0 0.00 0.00 0.00 38 1008.3
20260906045609 63 340 0.0 5.0 0.00 0.00 0.00 37 1008.2
20260906044550 64 340 4.0 7.0 0.00 0.00 0.00 35 1008.3
20260906043528 64 340 4.0 9.0 0.00 0.00 0.00 35 1008.3
20260906042545 65 339 7.0 10.0 0.00 0.00 0.00 35 1008.3
20260906041557 64 334 4.0 9.0 0.00 0.00 0.00 36 1008.3
20260906035426 66 0 0.0 7.0 0.00 0.00 0.00 34 1008.2
20260906034427 66 0 0.0 0.0 0.00 0.00 0.00 34 1008.1
20260906033412 66 0 0.0 2.0 0.00 0.00 0.00 35 1008.0
20260906032405 65 0 0.0 0.0 0.00 0.00 0.00 36 1007.9
20260906031356 65 269 0.0 0.0 0.00 0.00 0.00 36 1007.8
20260906030405 66 269 0.0 0.0 0.00 0.00 0.00 35 1007.7
20260906024306 67 269 0.0 0.0 0.00 0.00 0.00 34 1007.5
20260906023324 68 269 0.0 0.0 0.00 0.00 0.00 33 1007.2
20260906022322 69 269 0.0 0.0 0.00 0.00 0.00 32 1007.1
20260906021255 71 269 0.0 0.0 0.00 0.00 0.00 30 1006.9
20260906020310 73 269 0.0 1.0 0.00 0.00 0.00 27 1006.9
20260906015236 74 269 0.0 0.0 0.00 0.00 0.00 27 1006.7
20260906014253 75 269 0.0 0.0 0.00 0.00 0.00 26 1006.6
20260906005839 78 253 0.0 11.0 0.00 0.00 0.00 24 1006.4
20260906004816 79 258 3.0 11.0 0.00 0.00 0.00 25 1006.3
20260906001511 80 238 0.0 5.0 0.00 0.00 0.00 23 1006.2
20260906000525 80 240 1.0 0.0 0.00 0.00 0.00 23 1006.3
20260905235515 82 229 3.0 10.0 0.00 0.00 0.00 23 1006.3
20260905234516 83 223 1.0 10.0 0.00 0.00 0.00 22 1006.1
20260905233516 83 0 1.0 2.0 0.00 0.00 0.00 22 1006.3
20260905232445 83 242 0.0 8.0 0.00 0.00 0.00 22 1006.3
20260905231421 83 240 0.0 6.0 0.00 0.00 0.00 22 1006.3
20260905230446 82 247 1.0 3.0 0.00 0.00 0.00 21 1006.4
20260905224242 83 259 0.0 0.0 0.00 0.00 0.00 22 1006.3
20260905223247 83 0 4.0 0.0 0.00 0.00 0.00 22 1006.3
20260905222245 83 0 1.0 10.0 0.00 0.00 0.00 23 1006.4
20260905221307 83 257 3.0 15.0 0.00 0.00 0.00 24 1006.4